User: anonymous   Login
Location: Home
(42.5358°N, 72.7383°W)
Time: 23:39:35
(UTC-05:00)
Language:

BUGSAT 1 - Orbit

View from above orbital plane
View from above orbital plane
View from above satellite
View from above satellite

Ground track
Ground track

The orbit data is extracted from the following two-line orbital elements,

1 40014U 14033E   22026.57200873  .00000348  00000-0  36389-4 0  9992
2 40014  98.1340  19.3276 0031784 144.8816 215.4507 14.96064128414924
Epoch (UTC): 26 January 2022 13:43:41
Eccentricity: 0.0031784
inclination: 98.1340°
perigee height: 557 km
apogee height: 601 km
right ascension of ascending node: 19.3276°
argument of perigee: 144.8816°
revolutions per day: 14.96064128
mean anomaly at epoch: 215.4507°
orbit number at epoch: 41492

The dashed part of the orbit path shows where the satellite is in the earth's shadow,  

DLR